Time,TemperatureF,DewpointF,PressureIn,WindDirection,WindDirectionDegrees,WindSpeedMPH,WindSpeedGustMPH,Humidity,HourlyPrecipIn,Conditions,Clouds,dailyrainin,SoftwareType,DateUTC
2013-05-04 00:03:00,46.7,44.2,30.00,NNE,18,2.0,4.0,91,0.00,,,0.00,Wunderground v.1.15,2013-05-04 05:03:00,
2013-05-04 00:12:00,46.6,44.4,29.99,North,9,2.0,2.0,92,0.00,,,0.00,Wunderground v.1.15,2013-05-04 05:12:00,
2013-05-04 00:18:00,46.5,44.6,29.99,NNE,13,1.0,2.0,93,0.00,,,0.00,Wunderground v.1.15,2013-05-04 05:18:00,
2013-05-04 00:23:00,46.4,44.2,29.99,NNE,15,1.0,1.0,92,0.00,,,0.00,Wunderground v.1.15,2013-05-04 05:23:00,
2013-05-04 00:32:00,46.2,44.0,29.99,North,5,1.0,1.0,92,0.00,,,0.00,Wunderground v.1.15,2013-05-04 05:32:00,
2013-05-04 00:37:00,46.1,43.9,29.99,NNW,333,1.0,1.0,92,0.00,,,0.00,Wunderground v.1.15,2013-05-04 05:37:00,
2013-05-04 00:42:00,45.9,43.7,29.99,North,10,0.0,0.0,92,0.00,,,0.00,Wunderground v.1.15,2013-05-04 05:42:00,
2013-05-04 00:47:00,45.9,43.7,29.99,NNE,14,0.0,0.0,92,0.00,,,0.00,Wunderground v.1.15,2013-05-04 05:47:00,
2013-05-04 00:53:00,45.7,43.8,29.99,NNE,13,0.0,2.0,93,0.00,,,0.00,Wunderground v.1.15,2013-05-04 05:53:00,
2013-05-04 00:58:00,45.6,43.7,29.99,NNE,14,1.0,2.0,93,0.00,,,0.00,Wunderground v.1.15,2013-05-04 05:58:00,
2013-05-04 01:03:00,45.6,43.7,29.98,North,10,1.0,1.0,93,0.00,,,0.00,Wunderground v.1.15,2013-05-04 06:03:00,
2013-05-04 01:08:00,45.5,43.6,29.98,NNE,15,0.0,1.0,93,0.00,,,0.00,Wunderground v.1.15,2013-05-04 06:08:00,
2013-05-04 01:13:00,45.4,43.5,29.98,North,355,0.0,0.0,93,0.00,,,0.00,Wunderground v.1.15,2013-05-04 06:13:00,
2013-05-04 01:18:00,45.3,43.4,29.98,NNE,19,1.0,3.0,93,0.00,,,0.00,Wunderground v.1.15,2013-05-04 06:18:00,
2013-05-04 01:28:00,45.0,43.1,29.98,NNE,21,0.0,0.0,93,0.00,,,0.00,Wunderground v.1.15,2013-05-04 06:28:00,
2013-05-04 01:33:00,44.9,43.0,29.98,NNE,22,0.0,0.0,93,0.00,,,0.00,Wunderground v.1.15,2013-05-04 06:33:00,
2013-05-04 01:38:00,44.8,43.2,29.98,NNE,30,0.0,0.0,94,0.00,,,0.00,Wunderground v.1.15,2013-05-04 06:38:00,
2013-05-04 01:43:00,44.7,43.1,29.97,NNE,30,0.0,0.0,94,0.00,,,0.00,Wunderground v.1.15,2013-05-04 06:43:00,
2013-05-04 01:48:00,44.5,42.9,29.97,North,360,0.0,0.0,94,0.00,,,0.00,Wunderground v.1.15,2013-05-04 06:48:00,
2013-05-04 01:57:00,44.5,42.9,29.97,NNE,19,0.0,0.0,94,0.00,,,0.00,Wunderground v.1.15,2013-05-04 06:57:00,
2013-05-04 02:03:00,44.5,42.9,29.97,NNE,24,0.0,0.0,94,0.00,,,0.00,Wunderground v.1.15,2013-05-04 07:03:00,
2013-05-04 02:13:00,44.3,42.7,29.97,NNE,14,0.0,0.0,94,0.00,,,0.00,Wunderground v.1.15,2013-05-04 07:13:00,
2013-05-04 02:18:00,44.2,42.6,29.97,NNE,13,0.0,0.0,94,0.00,,,0.00,Wunderground v.1.15,2013-05-04 07:18:00,
2013-05-04 02:23:00,44.0,42.4,29.97,North,360,0.0,0.0,94,0.00,,,0.00,Wunderground v.1.15,2013-05-04 07:23:00,
2013-05-04 02:33:00,43.9,42.6,29.96,North,350,0.0,0.0,95,0.00,,,0.00,Wunderground v.1.15,2013-05-04 07:33:00,
2013-05-04 02:38:00,43.7,42.4,29.96,North,355,0.0,0.0,95,0.00,,,0.00,Wunderground v.1.15,2013-05-04 07:38:00,
2013-05-04 02:43:00,43.6,42.3,29.96,North,355,0.0,0.0,95,0.00,,,0.00,Wunderground v.1.15,2013-05-04 07:43:00,
2013-05-04 02:48:00,43.4,42.1,29.96,NNE,32,0.0,0.0,95,0.00,,,0.00,Wunderground v.1.15,2013-05-04 07:48:00,
2013-05-04 02:53:00,43.3,42.0,29.96,NNE,32,0.0,0.0,95,0.00,,,0.00,Wunderground v.1.15,2013-05-04 07:53:00,
2013-05-04 03:03:00,43.1,41.8,29.96,NNW,340,0.0,0.0,95,0.00,,,0.00,Wunderground v.1.15,2013-05-04 08:03:00,
2013-05-04 03:13:00,43.0,41.9,29.96,NNW,341,0.0,0.0,96,0.00,,,0.00,Wunderground v.1.15,2013-05-04 08:13:00,
2013-05-04 03:18:00,42.9,41.6,29.96,NNW,342,0.0,0.0,95,0.00,,,0.00,Wunderground v.1.15,2013-05-04 08:18:00,
2013-05-04 03:23:00,42.9,41.8,29.96,North,355,0.0,0.0,96,0.00,,,0.00,Wunderground v.1.15,2013-05-04 08:23:00,
2013-05-04 03:28:00,42.7,41.6,29.96,North,355,0.0,0.0,96,0.00,,,0.00,Wunderground v.1.15,2013-05-04 08:28:00,
2013-05-04 03:38:00,42.5,41.4,29.96,North,355,0.0,0.0,96,0.00,,,0.00,Wunderground v.1.15,2013-05-04 08:38:00,
2013-05-04 03:43:00,42.4,41.3,29.96,North,355,0.0,0.0,96,0.00,,,0.00,Wunderground v.1.15,2013-05-04 08:43:00,
2013-05-04 03:48:00,42.3,41.2,29.96,North,355,0.0,0.0,96,0.00,,,0.00,Wunderground v.1.15,2013-05-04 08:48:00,
2013-05-04 03:53:00,42.3,41.2,29.96,North,355,0.0,0.0,96,0.00,,,0.00,Wunderground v.1.15,2013-05-04 08:53:00,
2013-05-04 03:58:00,42.2,41.1,29.95,North,355,0.0,0.0,96,0.00,,,0.00,Wunderground v.1.15,2013-05-04 08:58:00,
2013-05-04 04:03:00,42.1,41.0,29.95,North,355,0.0,0.0,96,0.00,,,0.00,Wunderground v.1.15,2013-05-04 09:03:00,
2013-05-04 04:13:00,41.9,40.8,29.95,North,355,0.0,0.0,96,0.00,,,0.00,Wunderground v.1.15,2013-05-04 09:13:00,
2013-05-04 04:18:00,41.8,40.7,29.96,North,355,0.0,0.0,96,0.00,,,0.00,Wunderground v.1.15,2013-05-04 09:18:00,
2013-05-04 04:23:00,41.7,40.6,29.96,North,355,0.0,0.0,96,0.00,,,0.00,Wunderground v.1.15,2013-05-04 09:23:00,
2013-05-04 04:28:00,41.6,40.5,29.96,North,355,0.0,0.0,96,0.00,,,0.00,Wunderground v.1.15,2013-05-04 09:28:00,
2013-05-04 04:33:00,41.5,40.4,29.96,North,355,0.0,0.0,96,0.00,,,0.00,Wunderground v.1.15,2013-05-04 09:33:00,
2013-05-04 04:43:00,41.3,40.2,29.96,North,355,0.0,0.0,96,0.00,,,0.00,Wunderground v.1.15,2013-05-04 09:43:00,
2013-05-04 04:48:00,41.2,40.1,29.96,North,355,0.0,0.0,96,0.00,,,0.00,Wunderground v.1.15,2013-05-04 09:48:00,
2013-05-04 04:53:00,41.1,40.0,29.96,North,355,0.0,0.0,96,0.00,,,0.00,Wunderground v.1.15,2013-05-04 09:53:00,
2013-05-04 04:57:00,41.0,40.2,29.96,North,355,0.0,0.0,97,0.00,,,0.00,Wunderground v.1.15,2013-05-04 09:57:00,
2013-05-04 05:02:00,40.9,39.8,29.97,North,355,0.0,0.0,96,0.00,,,0.00,Wunderground v.1.15,2013-05-04 10:02:00,
2013-05-04 05:08:00,40.6,39.5,29.97,North,355,0.0,0.0,96,0.00,,,0.00,Wunderground v.1.15,2013-05-04 10:08:00,
2013-05-04 05:13:00,40.5,39.4,29.97,North,355,0.0,0.0,96,0.00,,,0.00,Wunderground v.1.15,2013-05-04 10:13:00,
2013-05-04 05:18:00,40.4,39.6,29.97,North,355,0.0,0.0,97,0.00,,,0.00,Wunderground v.1.15,2013-05-04 10:18:00,
2013-05-04 05:23:00,40.3,39.3,29.97,North,355,0.0,0.0,96,0.00,,,0.00,Wunderground v.1.15,2013-05-04 10:23:00,
2013-05-04 05:28:00,40.1,39.3,29.97,North,355,0.0,0.0,97,0.00,,,0.00,Wunderground v.1.15,2013-05-04 10:28:00,
2013-05-04 05:33:00,39.9,39.1,29.97,North,355,0.0,0.0,97,0.00,,,0.00,Wunderground v.1.15,2013-05-04 10:33:00,
2013-05-04 05:38:00,39.8,38.8,29.97,North,355,0.0,0.0,96,0.00,,,0.00,Wunderground v.1.15,2013-05-04 10:38:00,
2013-05-04 05:47:00,39.5,38.7,29.97,North,355,0.0,0.0,97,0.00,,,0.00,Wunderground v.1.15,2013-05-04 10:47:00,
2013-05-04 05:52:00,39.6,38.8,29.97,North,355,0.0,0.0,97,0.00,,,0.00,Wunderground v.1.15,2013-05-04 10:52:00,
2013-05-04 05:57:00,39.6,38.8,29.97,North,355,0.0,0.0,97,0.00,,,0.00,Wunderground v.1.15,2013-05-04 10:57:00,
2013-05-04 06:02:00,39.6,38.8,29.97,North,355,0.0,0.0,97,0.00,,,0.00,Wunderground v.1.15,2013-05-04 11:02:00,
2013-05-04 06:08:00,39.3,38.5,29.98,North,355,0.0,0.0,97,0.00,,,0.00,Wunderground v.1.15,2013-05-04 11:08:00,
2013-05-04 06:17:00,39.1,38.3,29.98,North,355,0.0,0.0,97,0.00,,,0.01,Wunderground v.1.15,2013-05-04 11:17:00,
2013-05-04 06:22:00,39.0,38.2,29.98,North,355,0.0,0.0,97,0.00,,,0.01,Wunderground v.1.15,2013-05-04 11:22:00,
2013-05-04 06:27:00,39.0,38.2,29.98,North,355,0.0,0.0,97,0.00,,,0.01,Wunderground v.1.15,2013-05-04 11:27:00,
2013-05-04 06:32:00,39.1,38.3,29.98,North,355,0.0,0.0,97,0.00,,,0.01,Wunderground v.1.15,2013-05-04 11:32:00,
2013-05-04 06:37:00,39.3,38.5,29.98,North,355,0.0,0.0,97,0.00,,,0.01,Wunderground v.1.15,2013-05-04 11:37:00,
2013-05-04 06:42:00,39.6,38.8,29.98,North,355,0.0,0.0,97,0.00,,,0.01,Wunderground v.1.15,2013-05-04 11:42:00,
2013-05-04 06:52:00,39.7,38.9,29.99,North,355,0.0,0.0,97,0.00,,,0.01,Wunderground v.1.15,2013-05-04 11:52:00,
2013-05-04 06:57:00,39.7,38.9,29.99,North,355,0.0,0.0,97,0.00,,,0.01,Wunderground v.1.15,2013-05-04 11:57:00,
2013-05-04 07:03:00,39.7,38.9,29.99,North,355,0.0,0.0,97,0.00,,,0.01,Wunderground v.1.15,2013-05-04 12:03:00,
2013-05-04 07:13:00,40.4,39.6,30.00,North,355,0.0,0.0,97,0.00,,,0.01,Wunderground v.1.15,2013-05-04 12:13:00,
2013-05-04 07:22:00,41.0,40.5,30.00,North,355,0.0,0.0,98,0.00,,,0.01,Wunderground v.1.15,2013-05-04 12:22:00,
2013-05-04 07:27:00,41.5,41.0,30.00,North,355,0.0,0.0,98,0.00,,,0.01,Wunderground v.1.15,2013-05-04 12:27:00,
2013-05-04 07:32:00,42.0,41.5,30.00,North,355,0.0,0.0,98,0.00,,,0.01,Wunderground v.1.15,2013-05-04 12:32:00,
2013-05-04 07:37:00,42.5,42.0,30.00,North,355,0.0,0.0,98,0.00,,,0.01,Wunderground v.1.15,2013-05-04 12:37:00,
2013-05-04 07:42:00,43.3,42.8,30.00,North,355,0.0,0.0,98,0.00,,,0.01,Wunderground v.1.15,2013-05-04 12:42:00,
2013-05-04 07:47:00,44.0,43.5,30.00,North,5,0.0,0.0,98,0.00,,,0.01,Wunderground v.1.15,2013-05-04 12:47:00,
2013-05-04 07:57:00,44.9,44.4,30.00,North,355,0.0,0.0,98,0.00,,,0.01,Wunderground v.1.15,2013-05-04 12:57:00,
2013-05-04 08:03:00,45.4,44.9,30.00,North,360,0.0,0.0,98,0.00,,,0.01,Wunderground v.1.15,2013-05-04 13:03:00,
2013-05-04 08:08:00,45.7,44.9,30.00,NW,307,0.0,0.0,97,0.00,,,0.01,Wunderground v.1.15,2013-05-04 13:08:00,
2013-05-04 08:13:00,46.3,44.9,30.00,WNW,303,1.0,1.0,95,0.00,,,0.01,Wunderground v.1.15,2013-05-04 13:13:00,
2013-05-04 08:23:00,47.8,45.6,30.00,NNW,338,1.0,1.0,92,0.00,,,0.01,Wunderground v.1.15,2013-05-04 13:23:00,
2013-05-04 08:28:00,48.6,45.5,30.00,NNE,24,1.0,1.0,89,0.00,,,0.01,Wunderground v.1.15,2013-05-04 13:28:00,
2013-05-04 08:33:00,49.1,44.2,30.00,NNE,21,1.0,3.0,83,0.00,,,0.01,Wunderground v.1.15,2013-05-04 13:33:00,
2013-05-04 08:38:00,49.6,44.0,30.00,NNE,21,2.0,3.0,81,0.00,,,0.01,Wunderground v.1.15,2013-05-04 13:38:00,
2013-05-04 08:43:00,50.4,45.4,30.00,NNE,21,1.0,1.0,83,0.00,,,0.01,Wunderground v.1.15,2013-05-04 13:43:00,
2013-05-04 08:48:00,51.4,46.7,30.00,North,9,0.0,1.0,84,0.00,,,0.01,Wunderground v.1.15,2013-05-04 13:48:00,
2013-05-04 08:58:00,52.1,44.8,30.00,North,11,0.0,1.0,76,0.00,,,0.01,Wunderground v.1.15,2013-05-04 13:58:00,
2013-05-04 09:03:00,52.5,44.8,30.00,North,11,1.0,4.0,75,0.00,,,0.01,Wunderground v.1.15,2013-05-04 14:03:00,
2013-05-04 09:08:00,52.8,44.0,30.00,NNE,17,1.0,4.0,72,0.00,,,0.01,Wunderground v.1.15,2013-05-04 14:08:00,
2013-05-04 09:13:00,52.7,42.8,30.00,NNE,13,2.0,2.0,69,0.00,,,0.01,Wunderground v.1.15,2013-05-04 14:13:00,
2013-05-04 09:18:00,53.3,43.0,30.00,NNE,19,3.0,3.0,68,0.00,,,0.01,Wunderground v.1.15,2013-05-04 14:18:00,
2013-05-04 09:23:00,53.5,43.2,30.00,NNE,17,3.0,5.0,68,0.00,,,0.01,Wunderground v.1.15,2013-05-04 14:23:00,
2013-05-04 09:33:00,54.8,47.4,30.00,North,360,2.0,2.0,76,0.00,,,0.01,Wunderground v.1.15,2013-05-04 14:33:00,
2013-05-04 09:38:00,55.6,44.8,30.00,North,355,1.0,5.0,67,0.00,,,0.01,Wunderground v.1.15,2013-05-04 14:38:00,
2013-05-04 09:43:00,55.5,45.1,30.00,NNE,18,2.0,2.0,68,0.00,,,0.01,Wunderground v.1.15,2013-05-04 14:43:00,
2013-05-04 09:48:00,56.3,45.9,30.00,North,5,2.0,2.0,68,0.00,,,0.01,Wunderground v.1.15,2013-05-04 14:48:00,
2013-05-04 09:53:00,57.1,46.2,30.00,NNW,345,1.0,1.0,67,0.00,,,0.01,Wunderground v.1.15,2013-05-04 14:53:00,
2013-05-04 10:03:00,57.1,44.2,30.00,NNE,30,1.0,3.0,62,0.00,,,0.01,Wunderground v.1.15,2013-05-04 15:03:00,
2013-05-04 10:08:00,57.2,44.7,29.99,NNE,19,2.0,3.0,63,0.00,,,0.01,Wunderground v.1.15,2013-05-04 15:08:00,
2013-05-04 10:13:00,57.7,45.2,29.99,North,360,1.0,1.0,63,0.00,,,0.01,Wunderground v.1.15,2013-05-04 15:13:00,
2013-05-04 10:18:00,58.9,45.0,29.99,North,9,1.0,1.0,60,0.00,,,0.01,Wunderground v.1.15,2013-05-04 15:18:00,
2013-05-04 10:23:00,59.6,46.6,29.99,NW,326,0.0,0.0,62,0.00,,,0.01,Wunderground v.1.15,2013-05-04 15:23:00,
2013-05-04 10:28:00,60.2,46.3,29.99,North,360,0.0,0.0,60,0.00,,,0.01,Wunderground v.1.15,2013-05-04 15:28:00,
2013-05-04 10:38:00,61.0,46.1,29.99,NNE,24,0.0,3.0,58,0.00,,,0.01,Wunderground v.1.15,2013-05-04 15:38:00,
2013-05-04 10:43:00,60.6,44.3,29.99,North,360,1.0,1.0,55,0.00,,,0.01,Wunderground v.1.15,2013-05-04 15:43:00,
2013-05-04 10:48:00,60.3,41.0,29.99,NE,56,3.0,4.0,49,0.00,,,0.01,Wunderground v.1.15,2013-05-04 15:48:00,
2013-05-04 10:53:00,60.3,41.0,29.99,NNE,30,4.0,8.0,49,0.00,,,0.01,Wunderground v.1.15,2013-05-04 15:53:00,
2013-05-04 10:58:00,60.5,42.8,29.98,NNE,28,4.0,8.0,52,0.00,,,0.01,Wunderground v.1.15,2013-05-04 15:58:00,
2013-05-04 11:08:00,62.3,42.3,29.98,NE,37,3.0,4.0,48,0.00,,,0.01,Wunderground v.1.15,2013-05-04 16:08:00,
2013-05-04 11:13:00,62.7,42.2,29.98,NW,304,3.0,3.0,47,0.00,,,0.01,Wunderground v.1.15,2013-05-04 16:13:00,
2013-05-04 11:22:00,63.1,42.0,29.98,NNE,28,2.0,5.0,46,0.00,,,0.01,Wunderground v.1.15,2013-05-04 16:22:00,
2013-05-04 11:27:00,63.2,40.9,29.98,NNW,341,3.0,5.0,44,0.00,,,0.01,Wunderground v.1.15,2013-05-04 16:27:00,
2013-05-04 11:32:00,62.9,38.8,29.98,NNW,342,4.0,8.0,41,0.00,,,0.01,Wunderground v.1.15,2013-05-04 16:32:00,
2013-05-04 11:38:00,63.0,41.9,29.98,NNW,345,5.0,8.0,46,0.00,,,0.01,Wunderground v.1.15,2013-05-04 16:38:00,
2013-05-04 11:43:00,63.2,40.9,29.98,WNW,298,4.0,4.0,44,0.00,,,0.01,Wunderground v.1.15,2013-05-04 16:43:00,
2013-05-04 11:48:00,63.8,43.7,29.98,NNE,12,4.0,5.0,48,0.00,,,0.01,Wunderground v.1.15,2013-05-04 16:48:00,
2013-05-04 11:53:00,63.8,39.0,29.98,NNE,28,5.0,8.0,40,0.00,,,0.01,Wunderground v.1.15,2013-05-04 16:53:00,
2013-05-04 12:03:00,64.5,44.4,29.97,NNE,21,4.0,4.0,48,0.00,,,0.01,Wunderground v.1.15,2013-05-04 17:03:00,
2013-05-04 12:13:00,65.2,41.5,29.97,North,355,3.0,3.0,42,0.00,,,0.01,Wunderground v.1.15,2013-05-04 17:13:00,
2013-05-04 12:18:00,64.6,38.4,29.97,NNE,13,4.0,4.0,38,0.00,,,0.01,Wunderground v.1.15,2013-05-04 17:18:00,
2013-05-04 12:23:00,64.9,41.2,29.97,NNE,27,4.0,6.0,42,0.00,,,0.01,Wunderground v.1.15,2013-05-04 17:23:00,
2013-05-04 12:28:00,65.2,41.5,29.97,NNE,32,3.0,6.0,42,0.00,,,0.01,Wunderground v.1.15,2013-05-04 17:28:00,
2013-05-04 12:37:00,64.7,37.8,29.97,North,9,5.0,5.0,37,0.00,,,0.01,Wunderground v.1.15,2013-05-04 17:37:00,
2013-05-04 12:43:00,65.6,42.5,29.96,NNE,12,4.0,4.0,43,0.00,,,0.01,Wunderground v.1.15,2013-05-04 17:43:00,
2013-05-04 12:48:00,65.7,42.0,29.96,NNW,340,3.0,4.0,42,0.00,,,0.01,Wunderground v.1.15,2013-05-04 17:48:00,
2013-05-04 12:57:00,65.2,38.9,29.96,NE,38,5.0,5.0,38,0.00,,,0.01,Wunderground v.1.15,2013-05-04 17:57:00,
2013-05-04 13:03:00,66.2,41.8,29.95,SW,234,4.0,4.0,41,0.00,,,0.01,Wunderground v.1.15,2013-05-04 18:03:00,
2013-05-04 13:08:00,66.9,42.4,29.96,NNE,20,2.0,4.0,41,0.00,,,0.01,Wunderground v.1.15,2013-05-04 18:08:00,
2013-05-04 13:18:00,66.8,39.7,29.95,NW,326,4.0,4.0,37,0.00,,,0.01,Wunderground v.1.15,2013-05-04 18:18:00,
2013-05-04 13:23:00,66.5,38.7,29.95,NNE,18,4.0,5.0,36,0.00,,,0.01,Wunderground v.1.15,2013-05-04 18:23:00,
2013-05-04 13:28:00,66.4,40.7,29.95,NNE,17,4.0,5.0,39,0.00,,,0.01,Wunderground v.1.15,2013-05-04 18:28:00,
2013-05-04 13:33:00,66.6,38.8,29.95,NNE,25,3.0,5.0,36,0.00,,,0.01,Wunderground v.1.15,2013-05-04 18:33:00,
2013-05-04 13:38:00,67.1,41.3,29.94,NNE,15,2.0,5.0,39,0.00,,,0.01,Wunderground v.1.15,2013-05-04 18:38:00,
2013-05-04 13:43:00,68.2,44.2,29.94,NNE,17,2.0,2.0,42,0.00,,,0.01,Wunderground v.1.15,2013-05-04 18:43:00,
2013-05-04 13:53:00,69.8,44.4,29.94,NE,53,0.0,0.0,40,0.00,,,0.01,Wunderground v.1.15,2013-05-04 18:53:00,
2013-05-04 14:03:00,68.4,41.8,29.93,NE,48,3.0,3.0,38,0.00,,,0.01,Wunderground v.1.15,2013-05-04 19:03:00,
2013-05-04 14:08:00,68.3,42.4,29.94,NNE,19,3.0,7.0,39,0.00,,,0.01,Wunderground v.1.15,2013-05-04 19:08:00,
2013-05-04 14:13:00,66.8,38.3,29.93,NNE,23,4.0,13.0,35,0.00,,,0.01,Wunderground v.1.15,2013-05-04 19:13:00,
2013-05-04 14:23:00,66.7,40.3,29.93,NNE,18,5.0,5.0,38,0.00,,,0.01,Wunderground v.1.15,2013-05-04 19:23:00,
2013-05-04 14:28:00,67.3,38.7,29.93,NNE,18,4.0,5.0,35,0.00,,,0.01,Wunderground v.1.15,2013-05-04 19:28:00,
2013-05-04 14:33:00,67.0,40.5,29.92,NNE,21,4.0,4.0,38,0.00,,,0.01,Wunderground v.1.15,2013-05-04 19:33:00,
2013-05-04 14:38:00,68.2,41.6,29.92,ENE,67,2.0,4.0,38,0.00,,,0.01,Wunderground v.1.15,2013-05-04 19:38:00,
2013-05-04 14:43:00,68.2,38.7,29.92,SW,223,2.0,2.0,34,0.00,,,0.01,Wunderground v.1.15,2013-05-04 19:43:00,
2013-05-04 14:48:00,68.0,40.7,29.92,NNE,24,3.0,6.0,37,0.00,,,0.01,Wunderground v.1.15,2013-05-04 19:48:00,
2013-05-04 14:58:00,68.5,42.6,29.92,NW,317,2.0,3.0,39,0.00,,,0.01,Wunderground v.1.15,2013-05-04 19:58:00,
2013-05-04 15:03:00,68.6,41.3,29.92,North,360,2.0,5.0,37,0.00,,,0.01,Wunderground v.1.15,2013-05-04 20:03:00,
2013-05-04 15:08:00,68.2,39.5,29.91,NNE,26,2.0,6.0,35,0.00,,,0.01,Wunderground v.1.15,2013-05-04 20:08:00,
2013-05-04 15:13:00,68.3,41.7,29.91,NW,325,2.0,2.0,38,0.00,,,0.01,Wunderground v.1.15,2013-05-04 20:13:00,
2013-05-04 15:18:00,68.8,42.1,29.91,NNE,25,1.0,2.0,38,0.00,,,0.01,Wunderground v.1.15,2013-05-04 20:18:00,
2013-05-04 15:28:00,68.2,41.6,29.91,North,5,2.0,2.0,38,0.00,,,0.01,Wunderground v.1.15,2013-05-04 20:28:00,
2013-05-04 15:33:00,67.9,42.0,29.90,NNE,23,3.0,5.0,39,0.00,,,0.01,Wunderground v.1.15,2013-05-04 20:33:00,
2013-05-04 15:38:00,67.6,39.7,29.90,NNE,15,4.0,9.0,36,0.00,,,0.01,Wunderground v.1.15,2013-05-04 20:38:00,
2013-05-04 15:43:00,67.4,42.9,29.90,NNE,29,5.0,5.0,41,0.00,,,0.01,Wunderground v.1.15,2013-05-04 20:43:00,
2013-05-04 15:48:00,68.3,42.4,29.90,SW,231,2.0,5.0,39,0.00,,,0.01,Wunderground v.1.15,2013-05-04 20:48:00,
2013-05-04 15:53:00,68.8,41.5,29.90,NNE,30,0.0,1.0,37,0.00,,,0.01,Wunderground v.1.15,2013-05-04 20:53:00,
2013-05-04 16:03:00,68.5,40.5,29.89,North,360,0.0,0.0,36,0.00,,,0.01,Wunderground v.1.15,2013-05-04 21:03:00,
2013-05-04 16:12:00,68.6,43.3,29.89,North,11,0.0,0.0,40,0.00,,,0.01,Wunderground v.1.15,2013-05-04 21:12:00,
2013-05-04 16:17:00,68.7,40.7,29.89,NNE,25,0.0,0.0,36,0.00,,,0.01,Wunderground v.1.15,2013-05-04 21:17:00,
2013-05-04 16:22:00,68.5,41.2,29.89,North,360,0.0,0.0,37,0.00,,,0.01,Wunderground v.1.15,2013-05-04 21:22:00,
2013-05-04 16:27:00,67.9,41.3,29.89,NNE,29,0.0,0.0,38,0.00,,,0.01,Wunderground v.1.15,2013-05-04 21:27:00,
2013-05-04 16:33:00,67.6,40.4,29.89,NNE,29,2.0,2.0,37,0.00,,,0.01,Wunderground v.1.15,2013-05-04 21:33:00,
2013-05-04 16:42:00,67.7,45.6,29.88,NNE,30,0.0,2.0,45,0.00,,,0.01,Wunderground v.1.15,2013-05-04 21:42:00,
2013-05-04 16:47:00,67.9,44.6,29.88,NE,56,1.0,2.0,43,0.00,,,0.01,Wunderground v.1.15,2013-05-04 21:47:00,
2013-05-04 16:52:00,68.1,42.9,29.88,NE,56,1.0,1.0,40,0.00,,,0.01,Wunderground v.1.15,2013-05-04 21:52:00,
2013-05-04 16:57:00,68.2,42.9,29.88,ENE,65,0.0,1.0,40,0.00,,,0.01,Wunderground v.1.15,2013-05-04 21:57:00,
2013-05-04 17:03:00,68.1,43.5,29.88,NNE,12,0.0,4.0,41,0.00,,,0.01,Wunderground v.1.15,2013-05-04 22:03:00,
2013-05-04 17:12:00,67.5,41.7,29.88,NNE,32,1.0,3.0,39,0.00,,,0.01,Wunderground v.1.15,2013-05-04 22:12:00,
2013-05-04 17:17:00,67.4,44.1,29.88,NNE,31,0.0,3.0,43,0.00,,,0.01,Wunderground v.1.15,2013-05-04 22:17:00,
2013-05-04 17:22:00,67.2,41.4,29.88,NE,40,0.0,0.0,39,0.00,,,0.01,Wunderground v.1.15,2013-05-04 22:22:00,
2013-05-04 17:27:00,67.0,41.9,29.87,East,92,0.0,0.0,40,0.00,,,0.01,Wunderground v.1.15,2013-05-04 22:27:00,
2013-05-04 17:32:00,66.9,43.0,29.87,ENE,71,0.0,0.0,42,0.00,,,0.01,Wunderground v.1.15,2013-05-04 22:32:00,
2013-05-04 17:42:00,66.7,44.1,29.87,ENE,65,0.0,0.0,44,0.00,,,0.01,Wunderground v.1.15,2013-05-04 22:42:00,
2013-05-04 17:47:00,66.6,43.4,29.87,ENE,71,0.0,0.0,43,0.00,,,0.01,Wunderground v.1.15,2013-05-04 22:47:00,
2013-05-04 17:52:00,66.5,44.5,29.88,ENE,71,0.0,0.0,45,0.00,,,0.01,Wunderground v.1.15,2013-05-04 22:52:00,
2013-05-04 17:57:00,66.5,45.6,29.87,ENE,61,0.0,0.0,47,0.00,,,0.01,Wunderground v.1.15,2013-05-04 22:57:00,
2013-05-04 18:03:00,66.3,43.7,29.88,North,360,0.0,0.0,44,0.00,,,0.01,Wunderground v.1.15,2013-05-04 23:03:00,
2013-05-04 18:12:00,66.0,44.0,29.88,North,360,0.0,0.0,45,0.00,,,0.01,Wunderground v.1.15,2013-05-04 23:12:00,
2013-05-04 18:17:00,65.9,44.5,29.88,North,360,0.0,0.0,46,0.00,,,0.01,Wunderground v.1.15,2013-05-04 23:17:00,
2013-05-04 18:22:00,65.7,44.3,29.88,North,5,0.0,0.0,46,0.00,,,0.01,Wunderground v.1.15,2013-05-04 23:22:00,
2013-05-04 18:27:00,65.5,44.2,29.88,North,5,0.0,0.0,46,0.00,,,0.01,Wunderground v.1.15,2013-05-04 23:27:00,
2013-05-04 18:32:00,65.3,43.4,29.88,North,355,0.0,0.0,45,0.00,,,0.01,Wunderground v.1.15,2013-05-04 23:32:00,
2013-05-04 18:37:00,65.2,43.3,29.88,North,355,0.0,0.0,45,0.00,,,0.01,Wunderground v.1.15,2013-05-04 23:37:00,
2013-05-04 18:47:00,65.1,43.8,29.88,North,355,0.0,0.0,46,0.00,,,0.01,Wunderground v.1.15,2013-05-04 23:47:00,
2013-05-04 18:52:00,64.9,44.2,29.88,North,355,0.0,0.0,47,0.00,,,0.01,Wunderground v.1.15,2013-05-04 23:52:00,
2013-05-04 18:57:00,64.6,44.5,29.88,North,355,0.0,0.0,48,0.00,,,0.01,Wunderground v.1.15,2013-05-04 23:57:00,
2013-05-04 19:03:00,64.4,44.8,29.88,North,355,0.0,0.0,49,0.00,,,0.01,Wunderground v.1.15,2013-05-05 00:03:00,
2013-05-04 19:13:00,63.9,45.4,29.88,North,355,0.0,0.0,51,0.00,,,0.01,Wunderground v.1.15,2013-05-05 00:13:00,
2013-05-04 19:18:00,63.6,45.1,29.88,North,355,0.0,0.0,51,0.00,,,0.01,Wunderground v.1.15,2013-05-05 00:18:00,
2013-05-04 19:27:00,62.9,45.5,29.89,North,355,0.0,0.0,53,0.00,,,0.01,Wunderground v.1.15,2013-05-05 00:27:00,
2013-05-04 19:32:00,62.4,46.0,29.89,North,355,0.0,0.0,55,0.00,,,0.01,Wunderground v.1.15,2013-05-05 00:32:00,
2013-05-04 19:37:00,62.0,46.1,29.89,North,355,0.0,0.0,56,0.00,,,0.01,Wunderground v.1.15,2013-05-05 00:37:00,
2013-05-04 19:42:00,61.4,46.5,29.89,North,355,0.0,0.0,58,0.00,,,0.01,Wunderground v.1.15,2013-05-05 00:42:00,
2013-05-04 19:48:00,60.9,46.5,29.89,North,355,0.0,0.0,59,0.00,,,0.01,Wunderground v.1.15,2013-05-05 00:48:00,
2013-05-04 19:53:00,60.4,46.0,29.89,North,355,0.0,0.0,59,0.00,,,0.01,Wunderground v.1.15,2013-05-05 00:53:00,
2013-05-04 19:58:00,60.0,46.9,29.89,North,355,0.0,0.0,62,0.00,,,0.01,Wunderground v.1.15,2013-05-05 00:58:00,
2013-05-04 20:03:00,59.3,45.8,29.89,North,355,0.0,0.0,61,0.00,,,0.01,Wunderground v.1.15,2013-05-05 01:03:00,
2013-05-04 20:08:00,58.9,45.5,29.89,North,355,0.0,0.0,61,0.00,,,0.01,Wunderground v.1.15,2013-05-05 01:08:00,
2013-05-04 20:13:00,58.7,45.3,29.89,North,355,0.0,0.0,61,0.00,,,0.01,Wunderground v.1.15,2013-05-05 01:13:00,
2013-05-04 20:23:00,58.0,48.6,29.90,North,355,0.0,0.0,71,0.00,,,0.01,Wunderground v.1.15,2013-05-05 01:23:00,
2013-05-04 20:28:00,57.1,50.3,29.90,North,355,0.0,0.0,78,0.00,,,0.01,Wunderground v.1.15,2013-05-05 01:28:00,
2013-05-04 20:33:00,56.5,50.4,29.90,North,355,0.0,0.0,80,0.00,,,0.01,Wunderground v.1.15,2013-05-05 01:33:00,
2013-05-04 20:38:00,55.9,48.8,29.90,North,355,0.0,0.0,77,0.00,,,0.01,Wunderground v.1.15,2013-05-05 01:38:00,
2013-05-04 20:43:00,55.6,49.2,29.91,North,355,0.0,0.0,79,0.00,,,0.01,Wunderground v.1.15,2013-05-05 01:43:00,
2013-05-04 20:53:00,55.2,48.1,29.91,North,355,0.0,0.0,77,0.00,,,0.01,Wunderground v.1.15,2013-05-05 01:53:00,
2013-05-04 20:58:00,55.1,47.7,29.91,North,355,0.0,0.0,76,0.00,,,0.01,Wunderground v.1.15,2013-05-05 01:58:00,
2013-05-04 21:03:00,55.0,48.6,29.91,North,355,0.0,0.0,79,0.00,,,0.01,Wunderground v.1.15,2013-05-05 02:03:00,
2013-05-04 21:13:00,54.7,49.0,29.91,North,355,0.0,0.0,81,0.00,,,0.01,Wunderground v.1.15,2013-05-05 02:13:00,
2013-05-04 21:18:00,54.4,48.7,29.91,North,355,0.0,0.0,81,0.00,,,0.01,Wunderground v.1.15,2013-05-05 02:18:00,
2013-05-04 21:28:00,54.3,48.3,29.91,North,355,0.0,0.0,80,0.00,,,0.01,Wunderground v.1.15,2013-05-05 02:28:00,
2013-05-04 21:33:00,54.2,47.5,29.91,North,355,0.0,0.0,78,0.00,,,0.01,Wunderground v.1.15,2013-05-05 02:33:00,
2013-05-04 21:38:00,54.1,47.7,29.91,North,355,0.0,0.0,79,0.00,,,0.01,Wunderground v.1.15,2013-05-05 02:38:00,
2013-05-04 21:43:00,54.0,47.6,29.91,North,355,0.0,0.0,79,0.00,,,0.01,Wunderground v.1.15,2013-05-05 02:43:00,
2013-05-04 21:48:00,53.9,48.2,29.91,North,355,0.0,0.0,81,0.00,,,0.01,Wunderground v.1.15,2013-05-05 02:48:00,
2013-05-04 21:58:00,53.5,48.8,29.91,North,355,0.0,0.0,84,0.00,,,0.01,Wunderground v.1.15,2013-05-05 02:58:00,
2013-05-04 22:03:00,53.5,48.1,29.91,North,355,0.0,0.0,82,0.00,,,0.01,Wunderground v.1.15,2013-05-05 03:03:00,
2013-05-04 22:08:00,54.3,48.3,29.91,North,355,0.0,0.0,80,0.00,,,0.01,Wunderground v.1.15,2013-05-05 03:08:00,
2013-05-04 22:13:00,54.6,48.6,29.91,North,355,0.0,0.0,80,0.00,,,0.01,Wunderground v.1.15,2013-05-05 03:13:00,
2013-05-04 22:18:00,54.6,49.5,29.91,North,355,0.0,0.0,83,0.00,,,0.01,Wunderground v.1.15,2013-05-05 03:18:00,
2013-05-04 22:23:00,54.5,47.4,29.91,North,355,0.0,0.0,77,0.00,,,0.01,Wunderground v.1.15,2013-05-05 03:23:00,
2013-05-04 22:33:00,56.5,47.6,29.91,West,276,0.0,0.0,72,0.00,,,0.01,Wunderground v.1.15,2013-05-05 03:33:00,
2013-05-04 22:38:00,56.8,47.5,29.91,West,277,0.0,0.0,71,0.00,,,0.01,Wunderground v.1.15,2013-05-05 03:38:00,
2013-05-04 22:43:00,56.7,47.4,29.91,West,277,0.0,0.0,71,0.00,,,0.01,Wunderground v.1.15,2013-05-05 03:43:00,
2013-05-04 22:48:00,56.6,47.3,29.91,West,276,0.0,0.0,71,0.00,,,0.01,Wunderground v.1.15,2013-05-05 03:48:00,
2013-05-04 22:53:00,56.6,47.3,29.91,West,276,0.0,0.0,71,0.00,,,0.01,Wunderground v.1.15,2013-05-05 03:53:00,
2013-05-04 23:02:00,56.4,47.5,29.91,West,276,0.0,0.0,72,0.00,,,0.01,Wunderground v.1.15,2013-05-05 04:02:00,
2013-05-04 23:08:00,56.4,47.9,29.91,West,276,0.0,0.0,73,0.00,,,0.01,Wunderground v.1.15,2013-05-05 04:08:00,
2013-05-04 23:13:00,56.4,47.9,29.91,West,277,0.0,0.0,73,0.00,,,0.01,Wunderground v.1.15,2013-05-05 04:13:00,
2013-05-04 23:18:00,56.3,48.1,29.90,West,277,0.0,0.0,74,0.00,,,0.01,Wunderground v.1.15,2013-05-05 04:18:00,
2013-05-04 23:23:00,56.1,47.9,29.90,West,276,0.0,0.0,74,0.00,,,0.01,Wunderground v.1.15,2013-05-05 04:23:00,
2013-05-04 23:28:00,56.0,47.8,29.91,West,276,0.0,0.0,74,0.00,,,0.01,Wunderground v.1.15,2013-05-05 04:28:00,
2013-05-04 23:38:00,55.5,48.1,29.90,West,277,0.0,0.0,76,0.00,,,0.01,Wunderground v.1.15,2013-05-05 04:38:00,
2013-05-04 23:43:00,55.3,48.2,29.90,West,277,0.0,0.0,77,0.00,,,0.01,Wunderground v.1.15,2013-05-05 04:43:00,
2013-05-04 23:48:00,54.9,49.2,29.91,West,277,0.0,0.0,81,0.00,,,0.01,Wunderground v.1.15,2013-05-05 04:48:00,
2013-05-04 23:53:00,54.5,49.1,29.91,West,276,0.0,0.0,82,0.00,,,0.01,Wunderground v.1.15,2013-05-05 04:53:00,
2013-05-04 23:57:00,54.0,49.0,29.91,West,276,0.0,0.0,83,0.00,,,0.00,Wunderground v.1.15,2013-05-05 04:57:00,